W7YP Weather Reports


time (UTC)temp
C
wind
direction
speed
KPH
gust
KPH
rain 1hr
cm
rain 24hr
cm
rain mn
cm
humidity
%
barometer
mb
20260905202134 17 131 0.0 3.2 0.00 0.03 0.03 65 1020.2
20260905201848 17 131 0.0 3.2 0.00 0.03 0.03 65 1020.2
20260905201129 17 177 0.0 3.2 0.00 0.03 0.03 67 1020.1
20260905201115 17 177 0.0 3.2 0.00 0.03 0.03 67 1020.2
20260905200125 17 264 0.0 3.2 0.00 0.03 0.03 67 1020.2
20260905195627 17 140 0.0 4.8 0.00 0.03 0.03 68 1020.2
20260905195125 16 141 0.0 4.8 0.00 0.03 0.03 70 1020.3
20260905194624 16 141 0.0 1.6 0.00 0.03 0.03 72 1020.2
20260905194115 16 141 0.0 4.8 0.00 0.03 0.03 76 1020.3
20260905193615 16 140 0.0 4.8 0.00 0.03 0.03 71 1020.3
20260905193115 16 90 0.0 3.2 0.00 0.03 0.03 75 1020.3
20260905192610 15 329 0.0 3.2 0.00 0.03 0.03 77 1020.3
20260905192105 15 329 0.0 4.8 0.00 0.03 0.03 75 1020.4
20260905191608 15 329 0.0 4.8 0.00 0.03 0.03 74 1020.4
20260905191108 15 175 0.0 3.2 0.00 0.03 0.03 75 1020.5
20260905190606 15 174 0.0 8.0 0.00 0.03 0.03 77 1020.5
20260905190106 15 173 0.0 8.0 0.00 0.03 0.03 81 1020.5
20260905185606 15 158 0.0 0.0 0.00 0.03 0.03 80 1020.6
20260905185109 15 158 0.0 1.6 0.00 0.03 0.03 80 1020.5
20260905184551 14 158 0.0 3.2 0.00 0.03 0.03 79 1020.6
20260905184310 14 158 0.0 3.2 0.00 0.03 0.03 80 1020.6
20260905183800 14 292 0.0 0.0 0.00 0.03 0.03 83 1020.6
20260905183045 13 292 0.0 0.0 0.00 0.03 0.03 83 1020.6
20260905182802 13 292 0.0 0.0 0.00 0.03 0.03 86 1020.7
20260905182043 13 292 0.0 1.6 0.00 0.03 0.03 85 1020.7
20260905181543 13 292 0.0 1.6 0.00 0.03 0.03 89 1020.7
20260905181038 12 291 0.0 1.6 0.00 0.03 0.03 88 1020.7
20260905180537 12 291 0.0 0.0 0.00 0.03 0.03 86 1020.8
20260905180038 12 291 0.0 0.0 0.00 0.03 0.03 88 1020.8
20260905175538 12 291 0.0 0.0 0.00 0.03 0.03 89 1020.8
20260905175038 12 291 0.0 0.0 0.00 0.03 0.03 89 1021.1
20260905174528 12 291 0.0 0.0 0.00 0.03 0.03 89 1021.0
20260905174249 11 291 0.0 1.6 0.00 0.03 0.03 91 1021.0
20260905173522 11 291 0.0 1.6 0.00 0.03 0.03 92 1021.0
20260905173013 11 291 0.0 0.0 0.00 0.03 0.03 94 1021.0
20260905172513 11 291 0.0 4.8 0.00 0.03 0.03 96 1021.0
20260905172013 11 291 0.0 4.8 0.00 0.03 0.03 96 1021.0
20260905171731 11 293 0.0 1.6 0.00 0.03 0.03 97 1021.0
20260905171015 10 292 0.0 1.6 0.00 0.03 0.03 98 1021.0
20260905170511 10 293 0.0 0.0 0.00 0.03 0.03 98 1021.0
20260905170010 10 293 0.0 0.0 0.00 0.03 0.03 98 1021.0
20260905165509 10 293 0.0 0.0 0.00 0.03 0.03 97 1021.0
20260905165010 10 293 0.0 0.0 0.00 0.03 0.03 97 1021.0
20260905164732 10 293 0.0 0.0 0.00 0.03 0.03 97 1021.1
20260905164005 10 293 0.0 0.0 0.03 0.03 0.03 97 1021.1
20260905163733 10 293 0.0 0.0 0.03 0.03 0.03 97 1021.0
20260905163006 9 293 0.0 0.0 0.03 0.03 0.03 97 1021.0
20260905162506 9 293 0.0 1.6 0.03 0.03 0.03 97 1020.8
20260905162007 9 293 0.0 3.2 0.03 0.03 0.03 97 1021.0
20260905161501 10 293 0.0 3.2 0.03 0.03 0.03 97 1020.8
20260905161001 10 293 0.0 1.6 0.03 0.03 0.03 98 1020.8
20260905160457 10 293 0.0 0.0 0.03 0.03 0.03 98 1020.8
20260905155954 9 293 0.0 0.0 0.03 0.03 0.03 98 1020.6
20260905155452 9 293 0.0 0.0 0.03 0.03 0.03 98 1020.6
20260905154951 9 293 0.0 0.0 0.03 0.03 0.03 98 1020.6
20260905154455 9 293 0.0 0.0 0.03 0.03 0.03 98 1020.6
20260905153947 9 293 0.0 0.0 0.00 0.00 0.00 98 1020.6
20260905153442 9 293 0.0 0.0 0.00 0.00 0.00 98 1020.6
20260905153203 9 293 0.0 0.0 0.00 0.00 0.00 98 1020.6
20260905152443 9 293 0.0 0.0 0.00 0.00 0.00 98 1020.7
20260905151946 9 293 0.0 0.0 0.00 0.00 0.00 97 1020.6
20260905151443 9 293 0.0 0.0 0.00 0.00 0.00 98 1020.7
20260905150938 9 293 0.0 0.0 0.00 0.03 0.00 98 1020.6
20260905150655 8 293 0.0 0.0 0.00 0.03 0.00 97 1020.6
20260905145933 8 293 0.0 0.0 0.00 0.03 0.00 97 1020.5
20260905145432 8 293 0.0 0.0 0.00 0.03 0.00 97 1020.5
20260905144929 8 293 0.0 0.0 0.00 0.05 0.00 97 1020.5
20260905144414 8 293 0.0 0.0 0.00 0.05 0.00 97 1020.5
20260905143914 8 293 0.0 0.0 0.00 0.05 0.00 97 1020.4
20260905143408 8 293 0.0 0.0 0.00 0.05 0.00 97 1020.4
20260905142909 8 293 0.0 0.0 0.00 0.05 0.00 97 1020.4
20260905142412 8 293 0.0 0.0 0.00 0.05 0.00 97 1020.4
20260905141907 8 293 0.0 0.0 0.00 0.05 0.00 97 1020.4
20260905141405 8 293 0.0 0.0 0.00 0.05 0.00 97 1020.3
20260905140905 8 293 0.0 0.0 0.00 0.05 0.00 97 1020.2
20260905140359 8 293 0.0 0.0 0.00 0.05 0.00 97 1019.9
20260905140128 8 293 0.0 0.0 0.00 0.08 0.00 97 1020.1
20260905135350 8 293 0.0 0.0 0.00 0.08 0.00 97 1020.1
20260905134850 8 293 0.0 0.0 0.00 0.08 0.00 97 1019.9
20260905134346 8 293 0.0 0.0 0.00 0.08 0.00 97 1019.9
20260905133848 8 293 0.0 0.0 0.00 0.08 0.00 97 1019.9
20260905133607 8 293 0.0 0.0 0.00 0.08 0.00 97 1020.1
20260905132846 8 293 0.0 0.0 0.00 0.08 0.00 97 1019.9
20260905132606 8 293 0.0 0.0 0.00 0.08 0.00 97 1019.9
20260905131841 8 293 0.0 0.0 0.00 0.08 0.00 97 1019.6
20260905131336 8 293 0.0 0.0 0.00 0.08 0.00 97 1019.5
20260905130832 8 293 0.0 0.0 0.00 0.08 0.00 97 1019.4
20260905130334 8 293 0.0 0.0 0.00 0.08 0.00 97 1019.2
20260905130058 8 293 0.0 0.0 0.00 0.08 0.00 97 1019.2
20260905125557 8 293 0.0 0.0 0.00 0.08 0.00 97 1019.2
20260905124832 8 293 0.0 0.0 0.00 0.08 0.00 97 1019.1
20260905124328 8 293 0.0 0.0 0.00 0.08 0.00 97 1019.1
20260905124054 8 293 0.0 0.0 0.00 0.08 0.00 97 1019.2
20260905123328 8 293 0.0 0.0 0.00 0.08 0.00 97 1019.2
20260905122829 8 293 0.0 0.0 0.00 0.08 0.00 97 1019.2
20260905122555 8 293 0.0 0.0 0.00 0.08 0.00 97 1019.3
20260905121818 8 293 0.0 0.0 0.00 0.08 0.00 97 1019.3
20260905121314 8 293 0.0 0.0 0.00 0.08 0.00 97 1019.3
20260905120809 8 293 0.0 0.0 0.00 0.08 0.00 97 1019.2
20260905120311 8 293 0.0 0.0 0.00 0.08 0.00 97 1019.1
20260905120032 8 293 0.0 0.0 0.00 0.08 0.00 97 1019.2
20260905115306 8 293 0.0 1.6 0.00 0.08 0.00 97 1019.4
20260905114805 8 293 0.0 1.6 0.00 0.08 0.00 97 1019.4
20260905114522 8 292 0.0 0.0 0.00 0.08 0.00 97 1019.2
20260905114020 8 292 0.0 0.0 0.00 0.08 0.00 97 1019.3
20260905113245 8 292 0.0 0.0 0.00 0.08 0.00 97 1019.3
20260905113005 8 292 0.0 6.4 0.00 0.08 0.00 97 1019.2
20260905112245 8 292 0.0 6.4 0.00 0.08 0.00 97 1019.2
20260905111745 8 289 0.0 0.0 0.00 0.08 0.00 97 1019.2
20260905111225 8 289 0.0 0.0 0.00 0.08 0.00 97 1019.1
20260905110950 8 289 0.0 0.0 0.00 0.08 0.00 97 1019.1
20260905110220 8 289 0.0 0.0 0.00 0.08 0.00 97 1018.8
20260905105721 8 289 0.0 0.0 0.00 0.08 0.00 97 1018.7
20260905105205 8 289 0.0 0.0 0.00 0.08 0.00 97 1018.6
20260905104656 8 289 0.0 0.0 0.00 0.08 0.00 97 1018.7
20260905104150 8 289 0.0 0.0 0.00 0.08 0.00 97 1018.4
20260905103631 8 289 0.0 0.0 0.00 0.08 0.00 97 1018.3
20260905103126 8 289 0.0 0.0 0.00 0.08 0.00 97 1018.4
20260905102854 8 289 0.0 0.0 0.00 0.08 0.00 97 1018.5
20260905102129 8 289 0.0 0.0 0.00 0.08 0.00 97 1018.4
20260905101603 8 289 0.0 0.0 0.00 0.08 0.00 97 1018.5
20260905101058 8 289 0.0 0.0 0.00 0.08 0.00 97 1018.2
20260905100551 8 289 0.0 0.0 0.00 0.08 0.00 97 1018.5
20260905100046 8 289 0.0 0.0 0.00 0.08 0.00 97 1018.4
20260905100022 8 289 0.0 0.0 0.00 0.08 0.00 97 1018.5
20260905095036 8 289 0.0 0.0 0.00 0.08 0.00 97 1018.6
20260905094531 8 289 0.0 0.0 0.00 0.08 0.00 97 1018.7
20260905094032 8 289 0.0 0.0 0.00 0.08 0.00 97 1018.5
20260905093527 8 289 0.0 0.0 0.00 0.08 0.00 97 1018.6
20260905093021 8 289 0.0 0.0 0.00 0.08 0.00 97 1018.5
20260905092522 8 289 0.0 0.0 0.00 0.08 0.00 97 1018.6
20260905092022 8 289 0.0 0.0 0.00 0.08 0.00 97 1018.7
20260905091523 8 289 0.0 0.0 0.00 0.08 0.00 97 1018.5
20260905091022 8 289 0.0 0.0 0.00 0.08 0.00 97 1018.3
20260905090518 8 289 0.0 0.0 0.00 0.08 0.00 97 1018.3
20260905090013 8 289 0.0 0.0 0.00 0.08 0.00 97 1018.5
20260905085511 8 289 0.0 0.0 0.00 0.08 0.00 97 1018.6
20260905084948 8 289 0.0 0.0 0.00 0.08 0.00 97 1018.7
20260905084712 8 289 0.0 0.0 0.00 0.08 0.00 97 1018.8
20260905083947 8 289 0.0 0.0 0.00 0.08 0.00 96 1018.7
20260905083716 8 289 0.0 0.0 0.00 0.08 0.00 96 1018.8
20260905082949 8 289 0.0 0.0 0.00 0.08 0.00 96 1018.7
20260905082444 8 289 0.0 0.0 0.00 0.08 0.00 96 1018.7
20260905081938 8 289 0.0 0.0 0.00 0.08 0.00 96 1018.6
20260905081928 8 289 0.0 0.0 0.00 0.08 0.00 96 1018.5
20260905080923 8 289 0.0 0.0 0.00 0.08 0.00 96 1018.6
20260905080419 8 289 0.0 0.0 0.00 0.08 0.00 96 1018.7
20260905075922 8 289 0.0 0.0 0.00 0.08 0.00 96 1018.8
20260905075419 8 289 0.0 0.0 0.00 0.08 0.00 96 1018.9
20260905074904 8 289 0.0 0.0 0.00 0.08 0.00 96 1018.9
20260905074404 8 289 0.0 0.0 0.00 0.08 0.00 96 1018.9
20260905073900 8 289 0.0 0.0 0.00 0.08 0.00 96 1018.8
20260905073357 8 289 0.0 0.0 0.00 0.08 0.00 96 1018.9
20260905072852 8 289 0.0 0.0 0.00 0.08 0.00 96 1019.2
20260905072350 8 289 0.0 0.0 0.00 0.08 0.00 95 1019.2
20260905072346 8 289 0.0 0.0 0.00 0.08 0.00 95 1019.3
20260905071348 8 289 0.0 0.0 0.00 0.08 0.00 95 1019.1
20260905070844 8 289 0.0 0.0 0.00 0.08 0.00 95 1018.8
20260905070333 8 289 0.0 0.0 0.00 0.08 0.00 95 1018.8
20260905065828 8 289 0.0 0.0 0.00 0.08 0.00 95 1018.7
20260905065315 8 289 0.0 0.0 0.00 0.08 0.00 95 1018.6
20260905064818 8 289 0.0 0.0 0.00 0.08 0.00 95 1018.3
20260905064310 8 289 0.0 0.0 0.00 0.08 0.00 95 1018.3
20260905063811 8 289 0.0 0.0 0.00 0.08 0.00 94 1018.3
20260905063311 8 289 0.0 0.0 0.00 0.08 0.00 95 1018.5
20260905063258 8 289 0.0 0.0 0.00 0.08 0.00 94 1018.5
20260905062312 8 289 0.0 0.0 0.00 0.08 0.00 95 1018.4
20260905061806 8 289 0.0 0.0 0.00 0.08 0.00 95 1018.3
20260905061301 8 289 0.0 0.0 0.00 0.08 0.00 95 1018.4
20260905060757 8 289 0.0 0.0 0.00 0.08 0.00 95 1018.5
20260905060256 8 289 0.0 0.0 0.00 0.08 0.00 95 1018.4
20260905055755 9 289 0.0 0.0 0.00 0.08 0.08 95 1018.5
20260905055247 9 289 0.0 0.0 0.00 0.08 0.08 95 1018.6
20260905054747 9 289 0.0 0.0 0.00 0.08 0.08 95 1018.6
20260905054243 9 289 0.0 0.0 0.00 0.08 0.08 95 1018.5
20260905053738 9 289 0.0 0.0 0.00 0.08 0.08 95 1018.5
20260905053238 9 289 0.0 0.0 0.00 0.08 0.08 95 1018.4
20260905052733 9 289 0.0 0.0 0.00 0.08 0.08 95 1018.5
20260905052454 9 289 0.0 0.0 0.00 0.08 0.08 95 1018.5
20260905051733 9 289 0.0 0.0 0.00 0.08 0.08 95 1018.3
20260905051236 9 289 0.0 0.0 0.00 0.08 0.08 95 1018.3
20260905050724 9 289 0.0 0.0 0.00 0.08 0.08 95 1018.3
20260905050218 9 289 0.0 0.0 0.00 0.08 0.08 95 1018.4
20260905045721 9 289 0.0 0.0 0.00 0.08 0.08 95 1018.4
20260905045214 9 289 0.0 0.0 0.00 0.08 0.08 95 1018.6
20260905044714 9 289 0.0 0.0 0.00 0.08 0.08 95 1018.7
20260905044208 9 289 0.0 0.0 0.00 0.08 0.08 95 1018.7
20260905043710 9 289 0.0 0.0 0.00 0.08 0.08 95 1018.7
20260905043159 9 289 0.0 0.0 0.00 0.08 0.08 94 1018.5
20260905042654 9 289 0.0 0.0 0.00 0.08 0.08 94 1018.7
20260905042154 9 289 0.0 0.0 0.00 0.08 0.08 94 1018.8
20260905041650 9 289 0.0 0.0 0.00 0.08 0.08 94 1018.6
20260905041149 9 289 0.0 0.0 0.00 0.08 0.08 94 1018.5
20260905040650 9 289 0.0 0.0 0.00 0.08 0.08 94 1018.5
20260905040152 9 289 0.0 0.0 0.00 0.08 0.08 94 1018.4
20260905035650 9 289 0.0 0.0 0.00 0.08 0.08 93 1018.3
20260905035632 9 289 0.0 0.0 0.00 0.08 0.08 93 1018.2
20260905034649 9 289 0.0 0.0 0.00 0.08 0.08 93 1018.3
20260905034130 10 289 0.0 0.0 0.00 0.08 0.08 93 1018.2
20260905033633 10 289 0.0 0.0 0.00 0.08 0.08 93 1018.3
20260905033126 10 289 0.0 0.0 0.00 0.08 0.08 93 1018.3
20260905032626 10 289 0.0 0.0 0.00 0.08 0.08 93 1018.1
20260905032129 10 289 0.0 0.0 0.00 0.08 0.08 93 1018.2
20260905031627 10 289 0.0 3.2 0.00 0.08 0.08 93 1018.1
20260905031349 10 289 0.0 3.2 0.00 0.08 0.08 93 1018.3
20260905030613 10 138 0.0 0.0 0.00 0.08 0.08 93 1018.3
20260905030112 10 138 0.0 3.2 0.00 0.08 0.08 93 1018.4
20260905025835 10 138 0.0 3.2 0.00 0.08 0.08 93 1018.4
20260905025343 10 138 0.0 1.6 0.00 0.08 0.08 92 1018.4
20260905024602 10 138 0.0 0.0 0.00 0.08 0.08 92 1018.3
20260905024326 10 138 0.0 0.0 0.00 0.08 0.08 92 1018.2
20260905023549 10 138 0.0 0.0 0.00 0.08 0.08 91 1018.1
20260905023048 10 138 0.0 3.2 0.00 0.08 0.08 91 1018.2
20260905022543 10 138 0.0 3.2 0.00 0.08 0.08 91 1017.9
20260905022037 10 139 0.0 0.0 0.00 0.08 0.08 90 1017.9
20260905021523 11 139 0.0 0.0 0.00 0.08 0.08 89 1017.9
20260905021023 11 139 0.0 0.0 0.00 0.08 0.08 89 1017.8
20260905020523 11 139 0.0 0.0 0.00 0.08 0.08 88 1017.8
20260905020022 11 139 0.0 0.0 0.00 0.08 0.08 88 1017.8
20260905015518 11 139 0.0 0.0 0.00 0.08 0.08 87 1017.6
20260905015021 12 139 0.0 0.0 0.00 0.08 0.08 87 1017.4
20260905014513 12 139 0.0 0.0 0.00 0.08 0.08 86 1017.4
20260905014008 12 139 0.0 0.0 0.00 0.08 0.08 86 1017.4
20260905013509 12 139 0.0 0.0 0.00 0.08 0.08 86 1017.4
20260905013459 13 139 0.0 0.0 0.00 0.08 0.08 86 1017.5
20260905012512 13 139 0.0 0.0 0.00 0.08 0.08 86 1017.5
20260905011959 13 139 0.0 0.0 0.00 0.08 0.08 86 1017.5
20260905011459 13 139 0.0 0.0 0.00 0.08 0.08 86 1017.6
20260905011000 13 139 0.0 0.0 0.00 0.08 0.08 86 1017.6
20260905010455 13 139 0.0 0.0 0.00 0.08 0.08 86 1017.5
20260905005950 13 139 0.0 0.0 0.00 0.08 0.08 86 1017.6
20260905005707 13 139 0.0 0.0 0.00 0.08 0.08 87 1017.6
20260905004940 13 139 0.0 0.0 0.00 0.08 0.08 86 1017.7
20260905004440 14 139 0.0 0.0 0.00 0.08 0.08 85 1017.6
20260905003944 14 139 0.0 0.0 0.00 0.08 0.08 85 1017.6
20260905003703 14 139 0.0 0.0 0.00 0.08 0.08 83 1017.5
20260905003206 14 139 0.0 0.0 0.00 0.08 0.08 84 1017.4
20260905002441 14 139 0.0 0.0 0.00 0.08 0.08 82 1017.3
20260905001937 15 139 0.0 0.0 0.00 0.08 0.08 82 1017.3
20260905001702 15 139 0.0 0.0 0.00 0.08 0.08 82 1017.3
20260905000934 15 139 0.0 0.0 0.00 0.08 0.08 82 1017.3
20260905000417 15 139 0.0 0.0 0.00 0.08 0.08 81 1017.2
20260904235917 15 139 0.0 0.0 0.00 0.08 0.08 81 1017.2
20260904235417 15 139 0.0 0.0 0.00 0.08 0.08 80 1017.3
20260904234917 15 139 0.0 0.0 0.00 0.08 0.08 78 1017.3
20260904234413 15 139 0.0 0.0 0.00 0.08 0.08 75 1017.3
20260904233907 15 139 0.0 0.0 0.00 0.08 0.08 77 1017.3
20260904233408 15 139 0.0 0.0 0.00 0.08 0.08 77 1017.2
20260904232910 15 139 0.0 0.0 0.00 0.08 0.08 74 1017.2
20260904232408 15 139 0.0 0.0 0.00 0.08 0.08 74 1017.4
20260904231907 15 139 0.0 0.0 0.00 0.08 0.08 75 1017.4
20260904231408 15 139 0.0 0.0 0.00 0.08 0.08 77 1017.4
20260904230904 15 139 0.0 0.0 0.00 0.08 0.08 68 1017.4
20260904230403 15 139 0.0 0.0 0.00 0.08 0.08 73 1017.3
20260904225904 15 139 0.0 0.0 0.00 0.08 0.08 67 1017.3
20260904225404 15 139 0.0 4.8 0.00 0.08 0.08 68 1017.3
20260904224906 15 139 0.0 4.8 0.00 0.08 0.08 66 1017.4
20260904224405 15 160 0.0 1.6 0.00 0.08 0.08 69 1017.3
20260904223900 15 160 0.0 1.6 0.00 0.08 0.08 71 1017.3
20260904223400 15 113 0.0 1.6 0.00 0.08 0.08 69 1017.4
20260904222849 15 107 0.0 3.2 0.00 0.08 0.08 69 1017.2
20260904222344 15 106 0.0 3.2 0.00 0.08 0.08 72 1017.2
20260904221839 15 79 0.0 0.0 0.00 0.08 0.08 74 1017.2
20260904221338 15 79 0.0 3.2 0.00 0.08 0.08 74 1017.0
20260904220839 15 79 0.0 3.2 0.00 0.08 0.08 75 1017.2
20260904220339 15 63 0.0 3.2 0.00 0.08 0.08 75 1017.3
20260904215839 14 63 0.0 3.2 0.00 0.08 0.08 77 1017.4
20260904215339 14 240 0.0 0.0 0.00 0.08 0.08 79 1017.3
20260904214835 14 240 0.0 0.0 0.00 0.08 0.08 78 1017.5
20260904214325 14 240 0.0 0.0 0.00 0.10 0.08 76 1017.4
20260904213827 14 240 0.0 1.6 0.00 0.10 0.08 76 1017.4
20260904213325 14 240 0.0 3.2 0.00 0.10 0.08 76 1017.3
20260904212820 14 240 0.0 3.2 0.00 0.10 0.08 77 1017.3
20260904212310 14 242 0.0 1.6 0.00 0.10 0.08 80 1017.2
20260904211811 13 242 0.0 3.2 0.00 0.10 0.08 79 1017.3
20260904211310 13 242 0.0 3.2 0.00 0.10 0.08 80 1017.2
20260904210808 13 98 0.0 1.6 0.00 0.10 0.08 81 1016.8
20260904210527 13 99 0.0 4.8 0.00 0.10 0.08 81 1016.8
20260904205756 14 99 0.0 4.8 0.00 0.10 0.08 80 1016.6
20260904205256 14 216 0.0 0.0 0.00 0.10 0.08 79 1016.7
20260904204756 13 216 0.0 4.8 0.00 0.10 0.08 77 1016.7
20260904204519 13 216 0.0 4.8 0.00 0.10 0.08 77 1016.6
20260904203751 13 221 0.0 3.2 0.00 0.13 0.08 80 1016.7
20260904203513 13 264 0.0 1.6 0.00 0.13 0.08 78 1016.6
20260904202743 13 268 0.0 0.0 0.00 0.18 0.08 83 1016.7